K3TXT-1 Weather Reports


time (UTC)temp
F
wind
direction
speed
knots
gust
knots
rain 1hr
in
rain 24hr
in
rain mn
in
humidity
%
barometer
mb
20260504221200 72 183 2.6 10.4 0.00 0.00 0.00 47
20260504220759 72 169 3.5 10.4 0.00 0.00 0.00 48
20260504220558 72 183 2.6 9.6 0.00 0.00 0.00 48
20260504220358 72 158 1.7 10.4 0.00 0.00 0.00 48
20260504220159 73 152 1.7 10.4 0.00 0.00 0.00 47
20260504220001 73 120 2.6 10.4 0.00 0.00 0.00 47
20260504215759 73 183 3.5 10.4 0.00 0.00 0.00 46
20260504215600 73 193 4.3 10.4 0.00 0.00 0.00 47
20260504215400 73 148 2.6 7.0 0.00 0.00 0.00 46
20260504215159 73 140 3.5 7.0 0.00 0.00 0.00 46
20260504215002 73 142 2.6 7.0 0.00 0.00 0.00 46
20260504214800 73 146 1.7 5.2 0.00 0.00 0.00 46
20260504214600 74 146 2.6 5.2 0.00 0.00 0.00 46
20260504214158 74 189 2.6 6.1 0.00 0.00 0.00 47
20260504214001 74 173 1.7 7.0 0.00 0.00 0.00 46
20260504213758 74 151 2.6 7.0 0.00 0.00 0.00 45
20260504213559 74 154 2.6 7.8 0.00 0.00 0.00 47
20260504213401 74 186 1.7 7.8 0.00 0.00 0.00 46
20260504213159 74 162 0.9 7.8 0.00 0.00 0.00 46
20260504213001 74 191 1.7 7.8 0.00 0.00 0.00 46
20260504212758 74 177 2.6 7.8 0.00 0.00 0.00 46
20260504212559 74 132 1.7 5.2 0.00 0.00 0.00 46
20260504212359 74 150 0.9 6.1 0.00 0.00 0.00 46
20260504212201 74 195 0.9 7.0 0.00 0.00 0.00 46
20260504211759 74 170 2.6 7.0 0.00 0.00 0.00 45
20260504211601 74 164 3.5 7.0 0.00 0.00 0.00 44
20260504211401 74 161 4.3 7.0 0.00 0.00 0.00 44
20260504211159 74 154 3.5 7.8 0.00 0.00 0.00 44
20260504211005 74 156 2.6 7.8 0.00 0.00 0.00 44
20260504210558 74 185 2.6 8.7 0.00 0.00 0.00 45
20260504210400 74 222 1.7 8.7 0.00 0.00 0.00 44
20260504210200 74 187 3.5 8.7 0.00 0.00 0.00 43
20260504210005 74 172 2.6 6.1 0.00 0.00 0.00 44
20260504205800 74 191 1.7 8.7 0.00 0.00 0.00 44
20260504205559 74 172 2.6 9.6 0.00 0.00 0.00 44
20260504205400 74 191 2.6 9.6 0.00 0.00 0.00 44
20260504205159 74 189 3.5 9.6 0.00 0.00 0.00 44
20260504205005 74 203 2.6 9.6 0.00 0.00 0.00 45
20260504204801 74 149 2.6 9.6 0.00 0.00 0.00 45
20260504204600 74 158 2.6 8.7 0.00 0.00 0.00 43
20260504204400 74 241 2.6 8.7 0.00 0.00 0.00 45
20260504204200 74 154 3.5 8.7 0.00 0.00 0.00 44
20260504203800 74 181 2.6 13.9 0.00 0.00 0.00 43
20260504203600 75 144 3.5 13.9 0.00 0.00 0.00 43
20260504203400 75 137 2.6 13.9 0.00 0.00 0.00 44
20260504203200 75 162 4.3 13.9 0.00 0.00 0.00 43
20260504203006 75 187 2.6 8.7 0.00 0.00 0.00 44
20260504202800 75 154 3.5 8.7 0.00 0.00 0.00 43
20260504202401 75 245 1.7 7.0 0.00 0.00 0.00 44
20260504202201 75 162 1.7 8.7 0.00 0.00 0.00 43
20260504202005 75 214 2.6 8.7 0.00 0.00 0.00 43
20260504201600 75 154 3.5 8.7 0.00 0.00 0.00 43
20260504201400 75 142 2.6 7.0 0.00 0.00 0.00 42
20260504201005 76 146 3.5 6.1 0.00 0.00 0.00 42
20260504200759 76 155 3.5 6.1 0.00 0.00 0.00 42
20260504200600 76 168 2.6 6.1 0.00 0.00 0.00 44
20260504200401 76 122 0.9 3.5 0.00 0.00 0.00 43
20260504200201 76 72 0.9 3.5 0.00 0.00 0.00 44
20260504200004 76 177 0.9 5.2 0.00 0.00 0.00 42
20260504195800 76 180 0.9 7.8 0.00 0.00 0.00 43
20260504195401 76 212 1.7 7.8 0.00 0.00 0.00 41
20260504195001 76 115 0.9 6.1 0.00 0.00 0.00 40
20260504194800 76 193 0.0 6.1 0.00 0.00 0.00 38
20260504194559 76 193 1.7 6.1 0.00 0.00 0.00 38
20260504194401 75 193 1.7 4.3 0.00 0.00 0.00 41
20260504194158 75 194 0.0 3.5 0.00 0.00 0.00 44
20260504194005 75 204 0.9 5.2 0.00 0.00 0.00 43
20260504193800 75 216 0.9 5.2 0.00 0.00 0.00 44
20260504193559 75 36 0.9 5.2 0.00 0.00 0.00 42
20260504193400 75 68 0.9 5.2 0.00 0.00 0.00 44
20260504193159 75 218 1.7 5.2 0.00 0.00 0.00 46
20260504193005 75 350 1.7 3.5 0.00 0.00 0.00 47
20260504192802 75 324 0.9 3.5 0.00 0.00 0.00 45
20260504192559 75 155 1.7 3.5 0.00 0.00 0.00 43
20260504192359 75 270 0.0 5.2 0.00 0.00 0.00 42
20260504191759 75 134 1.7 5.2 0.00 0.00 0.00 44
20260504191359 75 208 1.7 4.3 0.00 0.00 0.00 44
20260504191158 75 141 2.6 4.3 0.00 0.00 0.00 44
20260504191004 75 129 1.7 4.3 0.00 0.00 0.00 46
20260504190759 75 77 0.9 3.5 0.00 0.00 0.00 45
20260504190559 76 70 0.9 2.6 0.00 0.00 0.00 46
20260504190400 76 60 0.0 2.6 0.00 0.00 0.00 49
20260504190200 76 41 0.9 2.6 0.00 0.00 0.00 47
20260504185559 76 112 0.9 5.2 0.00 0.00 0.00 43
20260504185359 76 165 0.9 5.2 0.00 0.00 0.00 43
20260504185200 75 155 0.9 5.2 0.00 0.00 0.00 41
20260504185005 75 130 0.0 5.2 0.00 0.00 0.00 41
20260504184759 75 123 2.6 5.2 0.00 0.00 0.00 41
20260504184559 75 167 1.7 5.2 0.00 0.00 0.00 42
20260504184359 75 154 0.9 4.3 0.00 0.00 0.00 42
20260504184200 75 154 1.7 4.3 0.00 0.00 0.00 42
20260504184004 75 149 0.0 7.0 0.00 0.00 0.00 42
20260504183759 75 149 0.0 7.0 0.00 0.00 0.00 41
20260504183600 75 149 0.9 7.0 0.00 0.00 0.00 41
20260504183359 75 148 1.7 7.0 0.00 0.00 0.00 40
20260504183159 75 227 0.9 5.2 0.00 0.00 0.00 39
20260504182759 75 137 1.7 5.2 0.00 0.00 0.00 40
20260504182559 75 120 0.9 7.0 0.00 0.00 0.00 40
20260504182400 75 140 0.9 7.0 0.00 0.00 0.00 41
20260504182202 75 144 1.7 7.0 0.00 0.00 0.00 40
20260504182005 75 164 2.6 7.0 0.00 0.00 0.00 42
20260504181600 74 156 0.0 5.2 0.00 0.00 0.00 41
20260504181401 74 156 1.7 5.2 0.00 0.00 0.00 40
20260504181003 74 162 1.7 5.2 0.00 0.00 0.00 42
20260504180558 74 162 0.9 8.7 0.00 0.00 0.00 42
20260504180159 74 184 0.9 8.7 0.00 0.00 0.00 44
20260504180005 74 310 0.9 8.7 0.00 0.00 0.00 47
20260504175758 73 162 2.6 8.7 0.00 0.00 0.00 43
20260504175600 73 41 0.0 2.6 0.00 0.00 0.00 46
20260504175359 73 39 0.0 4.3 0.00 0.00 0.00 52
20260504175159 73 39 1.7 4.3 0.00 0.00 0.00 47
20260504174759 73 54 0.9 4.3 0.00 0.00 0.00 48
20260504174559 73 222 0.9 4.3 0.00 0.00 0.00 47
20260504174359 73 350 0.9 4.3 0.00 0.00 0.00 45
20260504174200 73 160 1.7 4.3 0.00 0.00 0.00 45
20260504174006 73 45 0.9 3.5 0.00 0.00 0.00 47
20260504173759 73 299 0.9 3.5 0.00 0.00 0.00 49
20260504173601 73 23 0.9 3.5 0.00 0.00 0.00 52
20260504173400 72 43 0.9 3.5 0.00 0.00 0.00 55
20260504173200 72 47 0.9 3.5 0.00 0.00 0.00 54
20260504172759 72 45 0.0 2.6 0.00 0.00 0.00 53
20260504172600 72 43 0.9 3.5 0.00 0.00 0.00 51
20260504172200 72 8 1.7 3.5 0.00 0.00 0.00 53
20260504172004 71 35 0.9 3.5 0.00 0.00 0.00 53
20260504171759 71 93 0.9 4.3 0.00 0.00 0.00 53
20260504171604 71 120 0.0 2.6 0.00 0.00 0.00 51
20260504171402 71 121 0.9 2.6 0.00 0.00 0.00 49
20260504171159 71 120 0.9 2.6 0.00 0.00 0.00 49
20260504170601 70 58 0.9 4.3 0.00 0.00 0.00 51
20260504170401 70 176 0.9 4.3 0.00 0.00 0.00 49
20260504170200 70 48 0.0 4.3 0.00 0.00 0.00 54
20260504160359 71 65 0.0 2.6 0.00 0.00 0.00 53
20260504160200 71 46 0.9 2.6 0.00 0.00 0.00 50
20260504150800 68 228 2.6 5.2 0.00 0.00 0.00 41
20260504150600 67 195 1.7 5.2 0.00 0.00 0.00 42
20260504150359 67 162 0.9 5.2 0.00 0.00 0.00 42
20260504150159 67 157 1.7 5.2 0.00 0.00 0.00 42
20260504141159 63 165 2.6 6.1 0.00 0.00 0.00 49
20260504140759 62 254 3.5 6.1 0.00 0.00 0.00 53
20260504140359 62 239 1.7 3.5 0.00 0.00 0.00 57
20260504140159 62 261 0.9 3.5 0.00 0.00 0.00 51
20260504130601 58 236 3.5 8.7 0.00 0.00 0.00 56
20260504130401 58 212 3.5 8.7 0.00 0.00 0.00 55
20260504130201 58 238 4.3 11.3 0.00 0.00 0.00 55
20260504120200 55 242 5.2 12.2 0.00 0.00 0.00 59
20260504110600 52 229 1.7 7.0 0.00 0.00 0.00 64
20260504110400 52 239 1.7 7.0 0.00 0.00 0.00 64
20260504110159 52 240 1.7 6.1 0.00 0.00 0.00 64
20260504100600 53 218 1.7 7.0 0.00 0.00 0.00 65
20260504100400 53 216 2.6 7.0 0.00 0.00 0.00 65
20260504082005 52 239 0.0 1.7 0.00 0.00 0.00 65
20260504081801 52 239 0.0 1.7 0.00 0.00 0.00 65
20260504081401 52 239 0.0 1.7 0.00 0.00 0.00 65
20260504081005 52 239 0.0 1.7 0.00 0.00 0.00 65
20260504080758 52 239 0.0 1.7 0.00 0.00 0.00 65
20260504080601 52 238 0.0 1.7 0.00 0.00 0.00 66
20260504080402 52 238 0.0 1.7 0.00 0.00 0.00 65
20260504070359 51 233 0.0 2.6 0.00 0.00 0.00 66
20260504070159 51 233 0.9 2.6 0.00 0.00 0.00 66
20260504050559 48 231 0.0 0.0 0.00 0.00 0.00 68
20260504050359 48 231 0.0 0.0 0.00 0.00 0.00 66
20260504050159 48 231 0.0 0.0 0.00 0.00 0.00 67
20260504050003 47 231 0.0 0.0 0.00 0.00 0.00 68
20260504045801 47 230 0.0 0.0 0.00 0.00 0.00 68
20260504045559 47 231 0.0 0.0 0.00 0.00 0.00 68
20260504045359 47 231 0.0 0.0 0.00 0.00 0.00 68
20260504045159 47 231 0.0 0.0 0.00 0.00 0.00 68
20260504045003 47 231 0.0 0.0 0.00 0.00 0.00 67
20260504044800 47 231 0.0 0.9 0.00 0.00 0.00 68
20260504044559 47 231 0.0 0.9 0.00 0.00 0.00 69
20260504044400 47 230 0.0 0.9 0.00 0.00 0.00 67
20260504044200 47 230 0.0 0.9 0.00 0.00 0.00 67
20260504043759 47 230 0.0 0.0 0.00 0.00 0.00 66
20260504043602 47 230 0.0 0.0 0.00 0.00 0.00 66
20260504043401 47 231 0.0 0.0 0.00 0.00 0.00 66
20260504043200 47 231 0.0 0.0 0.00 0.00 0.00 66
20260504043005 47 230 0.0 0.0 0.00 0.00 0.00 66
20260504042400 47 230 0.0 1.7 0.00 0.00 0.00 67
20260504042201 47 231 0.0 1.7 0.00 0.00 0.00 68
20260504042005 47 230 0.0 1.7 0.00 0.00 0.00 70
20260504041800 47 231 0.9 2.6 0.00 0.00 0.00 69
20260504041159 47 231 0.9 2.6 0.00 0.00 0.00 69
20260504040601 47 230 0.9 2.6 0.00 0.00 0.00 69
20260504040400 47 230 0.9 2.6 0.00 0.00 0.00 69
20260504040201 47 228 0.9 1.7 0.00 0.00 0.00 69
20260504040008 47 228 0.9 1.7 0.00 0.00 0.00 69
20260504035801 47 228 0.0 0.9 0.00 0.00 0.00 69
20260504035600 47 228 0.0 0.9 0.00 0.00 0.00 69
20260504035359 47 228 0.0 0.9 0.00 0.00 0.00 70
20260504035200 47 228 0.0 0.9 0.00 0.00 0.00 70
20260504035004 47 228 0.0 0.0 0.00 0.00 0.00 70
20260504034759 47 228 0.0 0.0 0.00 0.00 0.00 70
20260504034600 47 227 0.0 0.0 0.00 0.00 0.00 70
20260504034201 47 228 0.0 0.9 0.00 0.00 0.00 70
20260504034005 47 228 0.0 0.9 0.00 0.00 0.00 69
20260504033759 47 228 0.0 0.9 0.00 0.00 0.00 69
20260504033601 47 228 0.0 0.9 0.00 0.00 0.00 68
20260504033159 47 228 0.0 0.9 0.00 0.00 0.00 68
20260504033005 47 228 0.0 0.9 0.00 0.00 0.00 67
20260504032759 48 228 0.0 0.9 0.00 0.00 0.00 68
20260504032559 48 228 0.0 0.9 0.00 0.00 0.00 68
20260504032202 48 228 0.0 0.0 0.00 0.00 0.00 68
20260504032004 48 228 0.0 0.0 0.00 0.00 0.00 69
20260504031600 48 228 0.0 0.0 0.00 0.00 0.00 69
20260504031359 48 228 0.0 1.7 0.00 0.00 0.00 69
20260504031200 48 228 0.0 1.7 0.00 0.00 0.00 69
20260504031005 48 227 0.0 1.7 0.00 0.00 0.00 69
20260504030800 48 228 0.0 1.7 0.00 0.00 0.00 69
20260504030601 48 228 0.0 1.7 0.00 0.00 0.00 69
20260504030359 48 228 0.0 1.7 0.00 0.00 0.00 69
20260504030200 48 228 0.0 1.7 0.00 0.00 0.00 69
20260504030006 49 228 0.0 1.7 0.00 0.00 0.00 69
20260504025800 49 228 0.0 1.7 0.00 0.00 0.00 69
20260504025600 49 228 0.0 0.0 0.00 0.00 0.00 69
20260504025400 49 227 0.0 0.9 0.00 0.00 0.00 69
20260504025201 49 228 0.0 0.9 0.00 0.00 0.00 69
20260504024759 49 228 0.0 0.9 0.00 0.00 0.00 69
20260504024600 49 228 0.0 0.9 0.00 0.00 0.00 69
20260504024359 49 228 0.0 0.0 0.00 0.00 0.00 69
20260504024200 49 228 0.0 0.0 0.00 0.00 0.00 70
20260504024005 49 228 0.0 0.0 0.00 0.00 0.00 70
20260504023801 49 228 0.0 0.0 0.00 0.00 0.00 69
20260504023559 49 228 0.0 0.0 0.00 0.00 0.00 69
20260504023401 49 228 0.0 0.0 0.00 0.00 0.00 69
20260504023005 50 228 0.0 1.7 0.00 0.00 0.00 68
20260504022759 50 228 0.0 1.7 0.00 0.00 0.00 68
20260504022559 50 228 0.0 1.7 0.00 0.00 0.00 67
20260504022359 50 228 0.0 1.7 0.00 0.00 0.00 67
20260504022005 50 228 0.0 0.0 0.00 0.00 0.00 66
20260504021600 50 228 0.0 0.0 0.00 0.00 0.00 66
20260504021401 50 228 0.0 0.0 0.00 0.00 0.00 66
20260504021202 50 228 0.0 0.0 0.00 0.00 0.00 66
20260504021006 50 227 0.0 0.0 0.00 0.00 0.00 65
20260504020801 50 228 0.0 0.0 0.00 0.00 0.00 64
20260504020600 50 228 0.0 0.0 0.00 0.00 0.00 64
20260504020359 51 228 0.0 0.0 0.00 0.00 0.00 64
20260504020201 51 228 0.0 0.0 0.00 0.00 0.00 63
20260504020003 51 228 0.0 0.0 0.00 0.00 0.00 62
20260504015600 51 228 0.0 0.0 0.00 0.00 0.00 62
20260504015201 51 228 0.0 0.0 0.00 0.00 0.00 62
20260504015004 51 228 0.0 0.0 0.00 0.00 0.00 62
20260504014759 51 227 0.0 0.0 0.00 0.00 0.00 62
20260504014600 51 227 0.0 0.0 0.00 0.00 0.00 62
20260504014400 51 227 0.0 0.0 0.00 0.00 0.00 60
20260504013800 52 228 0.0 0.0 0.00 0.00 0.00 58
20260504013359 52 228 0.0 0.0 0.00 0.00 0.00 58
20260504013200 52 228 0.0 0.0 0.00 0.00 0.00 57
20260504013004 52 228 0.0 0.0 0.00 0.00 0.00 57
20260504012600 53 227 0.0 0.0 0.00 0.00 0.00 55
20260504012201 53 228 0.0 0.0 0.00 0.00 0.00 55
20260504012005 53 228 0.0 0.0 0.00 0.00 0.00 55
20260504011800 53 228 0.0 0.0 0.00 0.00 0.00 54
20260504011600 53 227 0.0 0.0 0.00 0.00 0.00 54
20260504011200 54 228 0.0 0.0 0.00 0.00 0.00 53
20260504011004 54 228 0.0 0.0 0.00 0.00 0.00 53
20260504010759 54 228 0.0 0.0 0.00 0.00 0.00 52
20260504010600 54 228 0.0 0.0 0.00 0.00 0.00 52
20260504010400 54 228 0.0 0.0 0.00 0.00 0.00 52
20260504010004 54 227 0.0 0.0 0.00 0.00 0.00 51
20260504005800 55 228 0.0 0.0 0.00 0.00 0.00 51
20260504005600 55 228 0.0 0.0 0.00 0.00 0.00 51
20260504005400 55 228 0.0 0.0 0.00 0.00 0.00 51
20260504005200 55 228 0.0 0.0 0.00 0.00 0.00 50
20260504005005 55 228 0.0 0.0 0.00 0.00 0.00 49
20260504004759 55 227 0.0 0.0 0.00 0.00 0.00 48
20260504004601 56 228 0.0 0.0 0.00 0.00 0.00 49
20260504004400 56 228 0.0 0.0 0.00 0.00 0.00 48
20260504004159 56 228 0.0 0.0 0.00 0.00 0.00 48
20260504004004 56 227 0.0 0.0 0.00 0.00 0.00 47
20260504003800 56 228 0.0 0.0 0.00 0.00 0.00 46
20260504003600 56 227 0.0 0.0 0.00 0.00 0.00 46
20260504003005 57 228 0.0 0.9 0.00 0.00 0.00 45
20260504002801 57 228 0.0 0.9 0.00 0.00 0.00 46
20260504002600 57 227 0.0 0.9 0.00 0.00 0.00 46
20260504002401 57 228 0.0 0.9 0.00 0.00 0.00 45
20260504002201 57 228 0.0 0.9 0.00 0.00 0.00 44
20260504002000 58 228 0.0 0.9 0.00 0.00 0.00 44
20260504001800 58 228 0.0 0.9 0.00 0.00 0.00 44
20260504001601 58 228 0.0 0.9 0.00 0.00 0.00 43
20260504001400 58 228 0.0 0.9 0.00 0.00 0.00 42
20260504001200 58 228 0.0 0.9 0.00 0.00 0.00 42
20260504001005 58 228 0.0 1.7 0.00 0.00 0.00 41
20260504000600 59 228 0.0 2.6 0.00 0.00 0.00 42
20260504000401 59 228 0.0 2.6 0.00 0.00 0.00 41
20260504000003 59 227 0.9 2.6 0.00 0.00 0.00 40
20260503235758 59 228 0.0 1.7 0.00 0.00 0.00 40
20260503235600 59 228 0.9 1.7 0.00 0.00 0.00 39
20260503235401 59 228 0.0 1.7 0.00 0.00 0.00 39
20260503235159 60 228 0.9 1.7 0.00 0.00 0.00 39
20260503235004 60 228 0.9 3.5 0.00 0.00 0.00 39
20260503234759 60 228 0.9 3.5 0.00 0.00 0.00 39
20260503234559 60 228 0.9 3.5 0.00 0.00 0.00 38
20260503234359 60 228 0.0 3.5 0.00 0.00 0.00 37
20260503234200 60 228 1.7 3.5 0.00 0.00 0.00 37
20260503234003 60 224 0.9 4.3 0.00 0.00 0.00 36
20260503233400 60 222 1.7 4.3 0.00 0.00 0.00 36
20260503233200 61 233 0.9 3.5 0.00 0.00 0.00 36
20260503233006 61 237 0.9 3.5 0.00 0.00 0.00 35
20260503232800 61 237 0.9 3.5 0.00 0.00 0.00 35
20260503232600 61 237 0.9 3.5 0.00 0.00 0.00 35
20260503232401 61 237 1.7 5.2 0.00 0.00 0.00 36
20260503232200 61 238 1.7 5.2 0.00 0.00 0.00 35
20260503231800 61 241 1.7 5.2 0.00 0.00 0.00 35
20260503231601 61 241 1.7 5.2 0.00 0.00 0.00 35
20260503231359 61 228 0.0 4.3 0.00 0.00 0.00 34
20260503231200 61 227 0.9 4.3 0.00 0.00 0.00 35
20260503231003 61 228 1.7 4.3 0.00 0.00 0.00 34
20260503230601 62 253 0.9 3.5 0.00 0.00 0.00 35
20260503230400 62 304 0.9 4.3 0.00 0.00 0.00 33
20260503230005 62 359 1.7 4.3 0.00 0.00 0.00 34
20260503225759 62 29 1.7 4.3 0.00 0.00 0.00 33
20260503225600 62 354 2.6 4.3 0.00 0.00 0.00 33
20260503225359 62 247 1.7 4.3 0.00 0.00 0.00 32
20260503225200 62 290 0.9 4.3 0.00 0.00 0.00 34
20260503225004 62 246 1.7 4.3 0.00 0.00 0.00 37
20260503224801 62 324 1.7 4.3 0.00 0.00 0.00 34
20260503224600 62 322 1.7 6.1 0.00 0.00 0.00 34
20260503224400 62 329 1.7 6.1 0.00 0.00 0.00 34
20260503224201 62 323 0.9 6.1 0.00 0.00 0.00 33
20260503224005 62 354 2.6 6.1 0.00 0.00 0.00 33
20260503223759 62 320 2.6 6.1 0.00 0.00 0.00 32
20260503223600 62 10 2.6 6.1 0.00 0.00 0.00 33
20260503223359 62 345 2.6 7.0 0.00 0.00 0.00 32
20260503223201 62 8 3.5 7.8 0.00 0.00 0.00 32
20260503223005 62 354 2.6 8.7 0.00 0.00 0.00 34
20260503222800 62 340 0.9 8.7 0.00 0.00 0.00 34
20260503222600 62 328 3.5 8.7 0.00 0.00 0.00 33
20260503222400 63 263 3.5 8.7 0.00 0.00 0.00 34
20260503222201 63 241 4.3 8.7 0.00 0.00 0.00 34
20260503222005 63 228 2.6 7.0 0.00 0.00 0.00 33
20260503221800 63 327 2.6 7.0 0.00 0.00 0.00 33
20260503221400 63 318 0.9 8.7 0.00 0.00 0.00 34